Fairfield, NJ

8:57 PM EST on December 04, 2016 (GMT -0500)
Essex County

Weather History for KCDW - May, 2013

Change the Weather History Date:

Monday, May 27, 2013

  Actual Average Record
Temperature  
Mean Temperature 58 °F -  
Max Temperature 75 °F 73 °F 94 °F (1965)
Min Temperature 42 °F 49 °F 35 °F (1967)
Degree Days  
Heating Degree Days 6    
Growing Degree Days 8 (Base 50)    
Moisture  
Dew Point 38 °F    
Average Humidity 49    
Maximum Humidity 89    
Minimum Humidity 24    
Precipitation  
Precipitation 0.00 in - - ()
Sea Level Pressure  
Sea Level Pressure 30.21 in    
Wind  
Wind Speed 2 mph (West)    
Max Wind Speed 9 mph    
Max Gust Speed 16 mph    
Visibility 10 miles    
Events      
Averages and records for this station are not official NWS values.
T = Trace of Precipitation, MM = Missing Value Source: NWS Daily Summary

Daily Weather History Graph

Daily Weather History Graph

Search for Another Location

Airport or City:

Trip Planner

Search our weather history database for the weather conditions in past years. The results will help you decide how hot, cold, wet, or windy it might be!

Date:

Astronomy

May. 27, 2013 Rise Set
Actual Time 5:30 AM EDT 8:18 PM EDT
Civil Twilight 4:57 AM EDT 8:51 PM EDT
Nautical Twilight 4:17 AM EDT 9:32 PM EDT
Astronomical Twilight 3:30 AM EDT 10:19 PM EDT
Moon 10:55 PM EDT (5/27) 8:04 AM EDT (5/27)
Length of Visible Light 15h 53m
Length of Day
14h 48m
Waning Gibbous, 91% of the Moon is Illuminated
May 27
Waning Gibbous
May 31
Last Quarter
Jun 8
New
Jun 16
First Quarter
Jun 23
Full

Hourly Weather History & Observations

Time (EDT) Temp. Dew Point Humidity Pressure Visibility Wind Dir Wind Speed Gust Speed Precip Events Conditions
12:53 AM 46.9 °F 39.0 °F 74% 30.24 in 10.0 mi Calm Calm - N/A   Clear
1:53 AM 46.0 °F 39.0 °F 76% 30.23 in 10.0 mi Calm Calm - N/A   Clear
2:53 AM 45.0 °F 39.0 °F 80% 30.24 in 10.0 mi Calm Calm - N/A   Clear
3:53 AM 43.0 °F 39.0 °F 86% 30.24 in 10.0 mi Calm Calm - N/A   Clear
4:53 AM 42.1 °F 39.0 °F 89% 30.25 in 10.0 mi Calm Calm - N/A   Clear
5:53 AM 42.1 °F 39.0 °F 89% 30.25 in 10.0 mi Calm Calm - N/A   Clear
6:53 AM 46.0 °F 39.9 °F 79% 30.26 in 10.0 mi Calm Calm - N/A   Clear
7:53 AM 53.1 °F 36.0 °F 52% 30.27 in 10.0 mi Variable 3.5 mph - N/A   Clear
8:53 AM 57.9 °F 37.0 °F 46% 30.27 in 10.0 mi SW 5.8 mph - N/A   Clear
9:53 AM 62.1 °F 36.0 °F 38% 30.26 in 10.0 mi West 5.8 mph - N/A   Clear
10:53 AM 66.0 °F 34.0 °F 30% 30.25 in 10.0 mi WNW 9.2 mph - N/A   Clear
11:53 AM 68.0 °F 32.0 °F 26% 30.23 in 10.0 mi West 8.1 mph - N/A   Clear
12:53 PM 69.1 °F 34.0 °F 27% 30.22 in 10.0 mi Calm Calm - N/A   Clear
1:53 PM 70.0 °F 34.0 °F 27% 30.19 in 10.0 mi Variable 6.9 mph - N/A   Clear
2:53 PM 73.0 °F 35.1 °F 25% 30.17 in 10.0 mi Variable 6.9 mph - N/A   Clear
3:53 PM 75.0 °F 36.0 °F 24% 30.15 in 10.0 mi West 5.8 mph - N/A   Clear
4:53 PM 75.0 °F 37.9 °F 26% 30.14 in 10.0 mi Variable 6.9 mph - N/A   Clear
5:53 PM 73.9 °F 35.1 °F 24% 30.14 in 10.0 mi WSW 6.9 mph 16.1 mph N/A   Clear
6:53 PM 71.1 °F 37.9 °F 30% 30.14 in 10.0 mi Variable 5.8 mph - N/A   Clear
7:53 PM 68.0 °F 37.9 °F 33% 30.15 in 10.0 mi Variable 3.5 mph - N/A   Clear
8:53 PM 64.9 °F 39.0 °F 39% 30.17 in 10.0 mi SW 3.5 mph - N/A   Clear
9:53 PM 62.1 °F 41.0 °F 46% 30.18 in 10.0 mi Calm Calm - N/A   Clear
10:53 PM 61.0 °F 42.1 °F 50% 30.19 in 10.0 mi Calm Calm - N/A   Clear
11:53 PM 59.0 °F 42.1 °F 53% 30.19 in 10.0 mi Calm Calm - N/A   Clear